Starlink 32457

operational
NORAD ID: 61717 Int'l Des: 2024-196 Owner: SPXS Country: US Constellation: starlink
LEOCIRCULAR

About Starlink 32457

Description loading...

Live Position

Loading 3D Globe...

Upcoming Passes

Altitude History

Altitude vs Time

uPlot chart will show altitude changes over time

Two-Line Element Set

1 61717U 24196L 25304.52975735 -.00003613 00000-0 -11002-3 0 9993
2 61717 53.1609 341.1285 0001133 73.1991 286.9134 15.30166776 57388
Epoch: Oct 31, 2025 • Age: 11 hours

Current Status

Altitude 481.1 km
Velocity 7.63 km/s
Sub-Earth Point 53.22°N, 31.74°E
Launch Date Oct 30, 2024
Age 1 years
Type internet

Technical Details

Classification Payload
Mass 730.00 kg
Dry Mass 700.00 kg
Total Mass 730.00 kg
Length 0.30 m
Diameter 4.10 m
Span 29.00 m
Shape Box + pan
Manufacturer SPXS
Bus Type Starlink V2M
Phase Status In Orbit
Owner/State SPXS/US

Large Constellations

Loading constellations...